sat.trackr.live / text

‹ back to catalog

STARLINK-30915

NORAD 58380 · 2023-178G

PAYLOAD ACTIVE UNKNOWN

§ Identity

Operator
Country
US
Launch date
2023-11-20
Launch site
AFWTR
Launch vehicle
Mass (kg)
RCS (m²)

Purposes: comms

External: N2YO · Heavens-Above · Gunter

§ Orbital elements

Epoch: 2026-09-20T20:58:25.098240Z

Period
93.85 min
Inclination
53.1610°
Eccentricity
0.0000971
Mean motion
15.34394235 rev/d
Perigee alt
462.1 km
Apogee alt
463.4 km
Semi-major
6,840.9 km
B*
1.6625e-7
RAAN
81.6241°
Arg perigee
101.3683°
Mean anomaly
258.7429°
Rev number
16,104

§ Raw data

STARLINK-309151 58380U 23178G   26263.87390160 -.00000370  00000+0  16625-6 0  99942 58380  53.1610  81.6241 0000971 101.3683 258.7429 15.34394235161041

JSON: /api/v1/satellites/58380 · /tle

For live sub-satellite position, see the globe view (requires WebGL).

§ Visibility from observer

Set your observer location to see the next 7 days of passes ≥ 10°. The values pass through the URL so the page stays shareable.

No JS? Fill the form by hand. The geolocation button needs JavaScript.